Language: 


Des rapports , des résumés tant et plus, au choix de chacun....


Données statistiques de la station
Quotidien Rapport Mai 7, 2017 Unités:  Métrique    Anglais   les deux
« Précédent Jour
Suivant Jour »
Quotidien Hebdomadaire Mensuel Annuel Actuel
  Haut: Bas: Moyen:
Température: 13.4 °C 9.8 °C 11.4 °C
Pt de rosée: 11.0 °C 7.0 °C 9.4 °C
Humidité: 96 % 75 % 87 %
Vitesse du vent: 20.6 km/h 0.0 km/h 8 km/h
Rafales: 24.8 km/h - -
Vent:- - WNW
Pression: 1020.9 hPa 1010.0 hPa -
Précipitation: 0.0 mm    
Historical Graphs
 
 
Données statistiques pour Mai 7, 2017
Heure Température Point de rosée Pression Vent Vitesse du vent Refales Humidité Pluie (taux horaire)
00:01 13.4 °C 11.0 °C 1010.0 hPa NNW 9.7 km/h 13.7 km/h 82 % 0.0 mm
00:06 13.3 °C 11.0 °C 1010.0 hPa NW 7.6 km/h 14.0 km/h 82 % 0.0 mm
00:11 13.2 °C 11.0 °C 1010.0 hPa NNW 5.5 km/h 17.7 km/h 83 % 0.0 mm
00:16 13.1 °C 10.0 °C 1010.0 hPa NNW 9.7 km/h 19.8 km/h 83 % 0.0 mm
00:21 13.1 °C 11.0 °C 1010.0 hPa NW 9.0 km/h 19.8 km/h 84 % 0.0 mm
00:26 13.0 °C 11.0 °C 1010.0 hPa NNW 9.7 km/h 17.2 km/h 84 % 0.0 mm
00:31 12.9 °C 11.0 °C 1010.0 hPa NW 4.3 km/h 17.2 km/h 85 % 0.0 mm
00:36 12.8 °C 11.0 °C 1011.1 hPa NNW 12.2 km/h 17.2 km/h 86 % 0.0 mm
00:39 12.8 °C 11.0 °C 1011.1 hPa WNW 6.9 km/h 17.2 km/h 86 % 0.0 mm
00:44 12.7 °C 11.0 °C 1011.1 hPa NNW 10.5 km/h 17.2 km/h 86 % 0.0 mm
00:49 12.7 °C 11.0 °C 1011.1 hPa NE 8.7 km/h 17.2 km/h 87 % 0.0 mm
00:54 12.6 °C 11.0 °C 1011.1 hPa NNW 20.6 km/h 20.6 km/h 87 % 0.0 mm
00:59 12.5 °C 11.0 °C 1011.1 hPa North 9.0 km/h 20.6 km/h 88 % 0.0 mm
01:04 12.5 °C 11.0 °C 1011.1 hPa NE 10.1 km/h 19.5 km/h 88 % 0.0 mm
01:09 12.4 °C 11.0 °C 1011.1 hPa NNW 8.7 km/h 19.5 km/h 89 % 0.0 mm
01:14 12.3 °C 11.0 °C 1011.1 hPa NNW 12.2 km/h 15.4 km/h 90 % 0.0 mm
01:19 12.3 °C 11.0 °C 1011.1 hPa North 13.0 km/h 17.7 km/h 90 % 0.0 mm
01:24 12.2 °C 11.0 °C 1011.1 hPa North 5.5 km/h 17.7 km/h 90 % 0.0 mm
01:29 12.2 °C 11.0 °C 1011.1 hPa NNW 11.9 km/h 16.9 km/h 91 % 0.0 mm
01:34 12.1 °C 11.0 °C 1011.1 hPa NNW 7.9 km/h 15.4 km/h 91 % 0.0 mm
01:39 12.1 °C 11.0 °C 1011.1 hPa North 19.5 km/h 21.2 km/h 92 % 0.0 mm
01:44 12.0 °C 11.0 °C 1011.1 hPa North 5.0 km/h 21.2 km/h 92 % 0.0 mm
01:50 12.0 °C 11.0 °C 1011.1 hPa NNW 8.7 km/h 16.9 km/h 92 % 0.0 mm
01:55 12.0 °C 11.0 °C 1010.0 hPa North 5.5 km/h 16.9 km/h 92 % 0.0 mm
02:00 12.0 °C 11.0 °C 1010.0 hPa West 11.9 km/h 14.3 km/h 93 % 0.0 mm
02:05 11.9 °C 11.0 °C 1010.0 hPa NNW 12.6 km/h 16.6 km/h 93 % 0.0 mm
02:10 11.9 °C 11.0 °C 1011.1 hPa NW 11.9 km/h 17.7 km/h 93 % 0.0 mm
02:15 11.8 °C 11.0 °C 1011.1 hPa NNE 12.2 km/h 17.7 km/h 93 % 0.0 mm
02:20 11.8 °C 11.0 °C 1011.1 hPa NNW 8.7 km/h 20.9 km/h 93 % 0.0 mm
02:25 11.8 °C 11.0 °C 1011.1 hPa North 10.5 km/h 20.9 km/h 93 % 0.0 mm
02:30 11.8 °C 11.0 °C 1011.1 hPa NNW 13.7 km/h 20.1 km/h 94 % 0.0 mm
02:35 11.7 °C 11.0 °C 1011.1 hPa NNW 14.0 km/h 20.1 km/h 94 % 0.0 mm
02:40 11.7 °C 11.0 °C 1011.1 hPa North 12.6 km/h 16.6 km/h 94 % 0.0 mm
02:45 11.7 °C 11.0 °C 1011.1 hPa NNW 10.5 km/h 15.8 km/h 94 % 0.0 mm
02:50 11.7 °C 11.0 °C 1011.1 hPa NNW 3.2 km/h 15.8 km/h 94 % 0.0 mm
02:55 11.7 °C 11.0 °C 1011.1 hPa North 6.9 km/h 14.8 km/h 94 % 0.0 mm
03:00 11.7 °C 11.0 °C 1011.1 hPa NNE 11.9 km/h 12.6 km/h 94 % 0.0 mm
03:05 11.7 °C 11.0 °C 1011.1 hPa North 1.8 km/h 13.7 km/h 94 % 0.0 mm
03:10 11.7 °C 11.0 °C 1012.1 hPa North 9.0 km/h 13.7 km/h 94 % 0.0 mm
03:15 11.7 °C 11.0 °C 1012.1 hPa NE 9.0 km/h 18.0 km/h 94 % 0.0 mm
03:20 11.6 °C 11.0 °C 1012.1 hPa NW 15.1 km/h 18.0 km/h 94 % 0.0 mm
03:26 11.6 °C 11.0 °C 1012.1 hPa NNE 5.0 km/h 15.1 km/h 95 % 0.0 mm
03:31 11.6 °C 11.0 °C 1012.1 hPa NW 4.3 km/h 14.0 km/h 95 % 0.0 mm
03:36 11.6 °C 11.0 °C 1012.1 hPa NE 3.5 km/h 14.0 km/h 95 % 0.0 mm
03:41 11.6 °C 11.0 °C 1012.1 hPa NNE 13.7 km/h 13.7 km/h 95 % 0.0 mm
03:46 11.6 °C 11.0 °C 1012.1 hPa North 4.3 km/h 13.7 km/h 95 % 0.0 mm
03:51 11.6 °C 11.0 °C 1012.1 hPa WNW 6.1 km/h 15.4 km/h 95 % 0.0 mm
03:56 11.6 °C 11.0 °C 1012.1 hPa North 6.1 km/h 15.4 km/h 95 % 0.0 mm
04:01 11.6 °C 11.0 °C 1012.1 hPa North 9.0 km/h 16.3 km/h 96 % 0.0 mm
04:06 11.6 °C 11.0 °C 1012.1 hPa NW 7.2 km/h 16.3 km/h 96 % 0.0 mm
04:11 11.6 °C 11.0 °C 1012.1 hPa WNW 7.9 km/h 16.9 km/h 96 % 0.0 mm
04:16 11.5 °C 11.0 °C 1012.1 hPa NW 10.1 km/h 16.9 km/h 96 % 0.0 mm
04:21 11.6 °C 11.0 °C 1012.1 hPa North 10.1 km/h 16.9 km/h 96 % 0.0 mm
04:26 11.5 °C 11.0 °C 1012.1 hPa North 6.1 km/h 16.3 km/h 96 % 0.0 mm
04:31 11.5 °C 11.0 °C 1012.1 hPa NW 10.5 km/h 16.3 km/h 96 % 0.0 mm
04:36 11.5 °C 11.0 °C 1013.1 hPa North 5.8 km/h 13.7 km/h 96 % 0.0 mm
04:41 11.5 °C 11.0 °C 1013.1 hPa NNW 5.5 km/h 16.6 km/h 96 % 0.0 mm
04:46 11.5 °C 11.0 °C 1013.1 hPa North 5.0 km/h 16.6 km/h 96 % 0.0 mm
04:51 11.5 °C 11.0 °C 1013.1 hPa NW 5.0 km/h 18.0 km/h 96 % 0.0 mm
04:56 11.5 °C 11.0 °C 1013.1 hPa North 14.0 km/h 18.0 km/h 96 % 0.0 mm
05:01 11.5 °C 11.0 °C 1013.1 hPa NW 12.6 km/h 16.9 km/h 96 % 0.0 mm
05:06 11.4 °C 11.0 °C 1013.1 hPa NNW 16.3 km/h 16.3 km/h 96 % 0.0 mm
05:11 11.4 °C 11.0 °C 1013.1 hPa NW 10.5 km/h 16.3 km/h 96 % 0.0 mm
05:16 11.4 °C 11.0 °C 1013.1 hPa NNW 9.3 km/h 16.3 km/h 96 % 0.0 mm
05:21 11.4 °C 11.0 °C 1013.1 hPa NNE 5.5 km/h 17.2 km/h 96 % 0.0 mm
05:26 11.4 °C 11.0 °C 1013.1 hPa NNW 9.0 km/h 19.5 km/h 96 % 0.0 mm
05:31 11.4 °C 11.0 °C 1013.1 hPa WNW 9.3 km/h 19.5 km/h 96 % 0.0 mm
05:36 11.4 °C 11.0 °C 1014.1 hPa NW 9.0 km/h 18.3 km/h 96 % 0.0 mm
05:41 11.4 °C 11.0 °C 1014.1 hPa North 6.1 km/h 17.2 km/h 96 % 0.0 mm
05:46 11.3 °C 11.0 °C 1014.1 hPa North 5.5 km/h 20.6 km/h 96 % 0.0 mm
05:51 11.3 °C 11.0 °C 1013.1 hPa NNE 12.2 km/h 20.6 km/h 96 % 0.0 mm
05:56 11.3 °C 11.0 °C 1013.1 hPa NNW 5.8 km/h 24.8 km/h 96 % 0.0 mm
06:01 11.3 °C 11.0 °C 1013.1 hPa NNW 4.0 km/h 24.8 km/h 96 % 0.0 mm
06:06 11.3 °C 11.0 °C 1012.1 hPa NNW 6.1 km/h 20.6 km/h 96 % 0.0 mm
06:12 11.3 °C 11.0 °C 1012.1 hPa North 8.7 km/h 20.6 km/h 96 % 0.0 mm
06:16 11.2 °C 11.0 °C 1012.1 hPa NNW 8.7 km/h 15.8 km/h 96 % 0.0 mm
06:22 11.2 °C 11.0 °C 1013.1 hPa North 9.3 km/h 15.4 km/h 96 % 0.0 mm
06:27 11.2 °C 11.0 °C 1013.1 hPa NNE 4.7 km/h 18.3 km/h 96 % 0.0 mm
06:32 11.2 °C 11.0 °C 1013.1 hPa NNE 11.9 km/h 18.3 km/h 96 % 0.0 mm
06:37 11.2 °C 11.0 °C 1013.1 hPa NNW 5.0 km/h 15.4 km/h 96 % 0.0 mm
06:42 11.2 °C 11.0 °C 1013.1 hPa North 12.6 km/h 15.8 km/h 96 % 0.0 mm
06:47 11.2 °C 11.0 °C 1013.1 hPa North 16.9 km/h 20.1 km/h 96 % 0.0 mm
06:52 11.2 °C 11.0 °C 1014.1 hPa North 9.3 km/h 21.9 km/h 96 % 0.0 mm
06:57 11.2 °C 11.0 °C 1014.1 hPa NNW 11.1 km/h 21.9 km/h 96 % 0.0 mm
07:02 11.2 °C 11.0 °C 1014.1 hPa NNE 12.2 km/h 14.0 km/h 96 % 0.0 mm
07:03 11.2 °C 11.0 °C 1014.1 hPa NNE 9.3 km/h 14.0 km/h 96 % 0.0 mm
07:08 11.2 °C 11.0 °C 1014.1 hPa NNW 3.5 km/h 14.3 km/h 96 % 0.0 mm
07:13 11.3 °C 11.0 °C 1014.1 hPa NNW 9.7 km/h 15.1 km/h 96 % 0.0 mm
07:18 11.3 °C 11.0 °C 1014.1 hPa NNW 5.8 km/h 21.2 km/h 96 % 0.0 mm
07:23 11.3 °C 11.0 °C 1014.1 hPa NNW 14.0 km/h 21.2 km/h 95 % 0.0 mm
07:28 11.3 °C 11.0 °C 1014.1 hPa North 5.8 km/h 20.9 km/h 95 % 0.0 mm
07:33 11.4 °C 11.0 °C 1014.1 hPa North 3.5 km/h 20.9 km/h 95 % 0.0 mm
07:38 11.4 °C 11.0 °C 1014.1 hPa ENE 9.3 km/h 19.8 km/h 95 % 0.0 mm
07:43 11.4 °C 11.0 °C 1014.1 hPa NNE 12.2 km/h 14.3 km/h 95 % 0.0 mm
07:48 11.4 °C 11.0 °C 1014.1 hPa NNW 9.3 km/h 17.7 km/h 95 % 0.0 mm
07:53 11.4 °C 11.0 °C 1015.1 hPa North 9.0 km/h 17.7 km/h 95 % 0.0 mm
07:58 11.4 °C 11.0 °C 1015.1 hPa NNW 14.0 km/h 14.3 km/h 95 % 0.0 mm
08:03 11.4 °C 11.0 °C 1015.1 hPa NNW 4.3 km/h 14.0 km/h 95 % 0.0 mm
08:08 11.4 °C 11.0 °C 1015.1 hPa NNW 9.0 km/h 13.7 km/h 95 % 0.0 mm
08:13 11.4 °C 11.0 °C 1015.1 hPa NE 6.1 km/h 15.4 km/h 95 % 0.0 mm
08:18 11.3 °C 10.0 °C 1015.1 hPa NNE 4.3 km/h 15.4 km/h 94 % 0.0 mm
08:23 11.3 °C 10.0 °C 1015.1 hPa NNW 6.1 km/h 15.1 km/h 94 % 0.0 mm
08:28 11.3 °C 10.0 °C 1015.1 hPa North 7.9 km/h 15.1 km/h 94 % 0.0 mm
08:33 11.4 °C 10.0 °C 1015.1 hPa NNW 10.1 km/h 14.0 km/h 94 % 0.0 mm
08:38 11.4 °C 10.0 °C 1015.1 hPa North 9.3 km/h 14.8 km/h 94 % 0.0 mm
08:43 11.4 °C 10.0 °C 1015.1 hPa NNW 6.4 km/h 14.8 km/h 94 % 0.0 mm
08:48 11.4 °C 10.0 °C 1015.1 hPa North 9.3 km/h 13.7 km/h 94 % 0.0 mm
08:52 11.4 °C 10.0 °C 1015.1 hPa North 6.9 km/h 12.6 km/h 94 % 0.0 mm
08:58 11.4 °C 10.0 °C 1015.1 hPa NE 8.7 km/h 12.6 km/h 94 % 0.0 mm
09:03 11.4 °C 10.0 °C 1015.1 hPa NW 14.3 km/h 16.3 km/h 94 % 0.0 mm
09:08 11.4 °C 10.0 °C 1015.1 hPa NNW 4.0 km/h 16.6 km/h 94 % 0.0 mm
09:13 11.4 °C 10.0 °C 1015.1 hPa North 6.9 km/h 16.6 km/h 94 % 0.0 mm
09:18 11.4 °C 10.0 °C 1015.1 hPa NNW 5.8 km/h 13.7 km/h 94 % 0.0 mm
09:23 11.4 °C 10.0 °C 1015.1 hPa North 9.0 km/h 15.4 km/h 94 % 0.0 mm
09:28 11.4 °C 10.0 °C 1015.1 hPa North 7.9 km/h 15.4 km/h 94 % 0.0 mm
09:33 11.4 °C 10.0 °C 1015.1 hPa NNW 5.8 km/h 16.3 km/h 94 % 0.0 mm
09:38 11.3 °C 10.0 °C 1015.1 hPa North 9.0 km/h 16.9 km/h 93 % 0.0 mm
09:43 11.4 °C 10.0 °C 1015.1 hPa NNW 10.5 km/h 16.9 km/h 93 % 0.0 mm
09:48 11.4 °C 10.0 °C 1015.1 hPa North 8.7 km/h 15.1 km/h 93 % 0.0 mm
09:53 11.4 °C 10.0 °C 1016.1 hPa North 5.8 km/h 11.9 km/h 93 % 0.0 mm
09:58 11.4 °C 10.0 °C 1016.1 hPa North 5.8 km/h 12.6 km/h 93 % 0.0 mm
10:03 11.3 °C 10.0 °C 1016.1 hPa ENE 12.2 km/h 16.6 km/h 93 % 0.0 mm
10:08 11.3 °C 10.0 °C 1016.1 hPa North 7.9 km/h 16.6 km/h 93 % 0.0 mm
10:13 11.3 °C 10.0 °C 1016.1 hPa North 6.4 km/h 13.7 km/h 93 % 0.0 mm
10:18 11.4 °C 10.0 °C 1016.1 hPa North 6.1 km/h 11.9 km/h 93 % 0.0 mm
10:23 11.4 °C 10.0 °C 1016.8 hPa North 7.6 km/h 14.0 km/h 93 % 0.0 mm
10:28 11.5 °C 11.0 °C 1016.8 hPa North 8.7 km/h 14.0 km/h 93 % 0.0 mm
10:33 11.5 °C 11.0 °C 1016.8 hPa North 6.1 km/h 14.0 km/h 93 % 0.0 mm
10:38 11.6 °C 11.0 °C 1016.8 hPa NNW 5.8 km/h 13.7 km/h 93 % 0.0 mm
10:43 11.6 °C 11.0 °C 1016.8 hPa North 10.1 km/h 13.7 km/h 93 % 0.0 mm
10:44 11.6 °C 11.0 °C 1016.8 hPa NW 10.5 km/h 16.3 km/h 93 % 0.0 mm
10:49 11.5 °C 10.0 °C 1016.8 hPa North 9.0 km/h 16.3 km/h 92 % 0.0 mm
10:54 11.4 °C 10.0 °C 1016.8 hPa NNW 9.0 km/h 14.0 km/h 92 % 0.0 mm
10:59 11.5 °C 10.0 °C 1016.8 hPa North 9.7 km/h 14.0 km/h 92 % 0.0 mm
11:04 11.5 °C 10.0 °C 1016.8 hPa NNE 10.1 km/h 17.7 km/h 92 % 0.0 mm
11:09 11.4 °C 10.0 °C 1016.8 hPa North 12.2 km/h 19.8 km/h 92 % 0.0 mm
11:14 11.3 °C 10.0 °C 1016.8 hPa NNW 10.5 km/h 19.8 km/h 91 % 0.0 mm
11:19 11.5 °C 10.0 °C 1016.8 hPa NNE 13.0 km/h 17.2 km/h 92 % 0.0 mm
11:24 11.5 °C 10.0 °C 1016.1 hPa NNW 6.4 km/h 14.0 km/h 91 % 0.0 mm
11:29 11.6 °C 10.0 °C 1016.1 hPa North 6.9 km/h 14.0 km/h 91 % 0.0 mm
11:34 11.6 °C 10.0 °C 1016.1 hPa NNW 7.9 km/h 14.0 km/h 90 % 0.0 mm
11:39 11.6 °C 10.0 °C 1016.8 hPa NNW 1.4 km/h 13.0 km/h 90 % 0.0 mm
11:44 11.6 °C 10.0 °C 1016.8 hPa NW 6.9 km/h 13.0 km/h 89 % 0.0 mm
11:49 11.7 °C 10.0 °C 1016.8 hPa WSW 3.5 km/h 13.0 km/h 89 % 0.0 mm
11:54 11.8 °C 10.0 °C 1016.8 hPa North 1.4 km/h 9.7 km/h 89 % 0.0 mm
11:59 11.8 °C 10.0 °C 1016.8 hPa North 10.5 km/h 12.6 km/h 88 % 0.0 mm
12:04 12.0 °C 10.0 °C 1016.8 hPa NNW 4.3 km/h 12.6 km/h 87 % 0.0 mm
12:09 11.9 °C 10.0 °C 1016.8 hPa NW 7.9 km/h 11.6 km/h 86 % 0.0 mm
12:14 11.9 °C 10.0 °C 1016.8 hPa NNW 10.1 km/h 13.7 km/h 85 % 0.0 mm
12:19 11.9 °C 10.0 °C 1016.8 hPa North 8.7 km/h 14.0 km/h 85 % 0.0 mm
12:24 11.8 °C 9.0 °C 1018.2 hPa ENE 8.7 km/h 15.8 km/h 85 % 0.0 mm
12:29 11.8 °C 9.0 °C 1018.2 hPa NE 5.0 km/h 15.8 km/h 85 % 0.0 mm
12:34 11.8 °C 9.0 °C 1018.2 hPa NNW 4.7 km/h 13.0 km/h 85 % 0.0 mm
12:39 11.9 °C 10.0 °C 1018.2 hPa North 12.2 km/h 15.1 km/h 85 % 0.0 mm
12:44 11.9 °C 10.0 °C 1018.2 hPa NW 8.7 km/h 15.1 km/h 85 % 0.0 mm
12:49 11.9 °C 10.0 °C 1018.2 hPa North 11.9 km/h 14.0 km/h 85 % 0.0 mm
12:54 11.8 °C 9.0 °C 1018.2 hPa North 10.1 km/h 17.2 km/h 85 % 0.0 mm
12:59 11.7 °C 9.0 °C 1018.2 hPa WNW 8.7 km/h 17.2 km/h 85 % 0.0 mm
13:04 11.7 °C 9.0 °C 1018.2 hPa NNW 5.8 km/h 16.3 km/h 84 % 0.0 mm
13:10 11.6 °C 9.0 °C 1018.2 hPa NNE 5.0 km/h 12.6 km/h 84 % 0.0 mm
13:15 11.6 °C 9.0 °C 1018.2 hPa WNW 6.4 km/h 13.7 km/h 84 % 0.0 mm
13:20 11.6 °C 9.0 °C 1018.2 hPa ENE 5.0 km/h 13.7 km/h 85 % 0.0 mm
13:25 11.7 °C 9.0 °C 1018.2 hPa NNW 11.9 km/h 11.9 km/h 85 % 0.0 mm
13:30 11.7 °C 9.0 °C 1018.2 hPa WNW 10.1 km/h 12.6 km/h 85 % 0.0 mm
13:35 11.6 °C 9.0 °C 1018.2 hPa NW 9.3 km/h 12.6 km/h 84 % 0.0 mm
13:40 11.6 °C 9.0 °C 1018.2 hPa North 5.5 km/h 10.1 km/h 84 % 0.0 mm
13:45 11.6 °C 9.0 °C 1018.2 hPa North 12.6 km/h 14.0 km/h 84 % 0.0 mm
13:50 11.7 °C 9.0 °C 1018.2 hPa WNW 6.1 km/h 16.3 km/h 84 % 0.0 mm
13:55 11.7 °C 9.0 °C 1018.2 hPa North 14.0 km/h 16.3 km/h 84 % 0.0 mm
14:00 11.7 °C 9.0 °C 1018.2 hPa NW 14.0 km/h 15.8 km/h 84 % 0.0 mm
14:05 11.6 °C 9.0 °C 1018.2 hPa ENE 7.6 km/h 15.8 km/h 83 % 0.0 mm
14:10 11.6 °C 9.0 °C 1018.2 hPa NNW 6.1 km/h 13.7 km/h 83 % 0.0 mm
14:11 11.6 °C 9.0 °C 1018.2 hPa NNW 5.8 km/h 13.7 km/h 83 % 0.0 mm
14:16 11.8 °C 9.0 °C 1018.2 hPa NNW 12.2 km/h 13.0 km/h 84 % 0.0 mm
14:22 11.9 °C 9.0 °C 1018.2 hPa NW 3.5 km/h 13.0 km/h 83 % 0.0 mm
14:27 12.1 °C 9.0 °C 1018.2 hPa NNW 6.1 km/h 10.5 km/h 83 % 0.0 mm
14:32 12.0 °C 9.0 °C 1018.2 hPa North 8.7 km/h 13.0 km/h 82 % 0.0 mm
14:37 12.0 °C 9.0 °C 1018.2 hPa NNW 8.7 km/h 13.0 km/h 81 % 0.0 mm
14:42 12.0 °C 9.0 °C 1018.2 hPa NNE 9.0 km/h 15.1 km/h 81 % 0.0 mm
14:47 12.0 °C 9.0 °C 1018.2 hPa NW 5.8 km/h 15.1 km/h 81 % 0.0 mm
14:52 12.1 °C 9.0 °C 1018.8 hPa NNW 12.6 km/h 13.0 km/h 81 % 0.0 mm
14:57 12.3 °C 9.0 °C 1018.8 hPa NNW 13.7 km/h 13.7 km/h 81 % 0.0 mm
15:02 12.4 °C 9.0 °C 1018.8 hPa North 11.6 km/h 13.7 km/h 81 % 0.0 mm
15:07 12.5 °C 10.0 °C 1018.8 hPa NNW 7.6 km/h 16.6 km/h 81 % 0.0 mm
15:12 12.5 °C 9.0 °C 1018.8 hPa NNE 9.0 km/h 16.6 km/h 79 % 0.0 mm
15:17 12.6 °C 9.0 °C 1018.8 hPa NNW 5.5 km/h 12.6 km/h 79 % 0.0 mm
15:22 12.5 °C 9.0 °C 1018.2 hPa North 6.9 km/h 15.8 km/h 79 % 0.0 mm
15:27 12.5 °C 9.0 °C 1018.2 hPa North 9.7 km/h 16.9 km/h 78 % 0.0 mm
15:32 12.5 °C 9.0 °C 1018.2 hPa WNW 6.1 km/h 16.9 km/h 78 % 0.0 mm
15:37 12.4 °C 9.0 °C 1018.8 hPa North 5.0 km/h 13.0 km/h 78 % 0.0 mm
15:42 12.2 °C 9.0 °C 1018.8 hPa WNW 6.1 km/h 13.0 km/h 77 % 0.0 mm
15:47 12.1 °C 9.0 °C 1018.8 hPa West 2.6 km/h 11.9 km/h 78 % 0.0 mm
15:52 12.1 °C 9.0 °C 1018.8 hPa North 8.7 km/h 14.0 km/h 78 % 0.0 mm
15:57 12.1 °C 9.0 °C 1018.8 hPa WSW 3.2 km/h 14.0 km/h 78 % 0.0 mm
16:02 12.2 °C 9.0 °C 1018.8 hPa WNW 5.5 km/h 10.5 km/h 77 % 0.0 mm
16:07 12.1 °C 9.0 °C 1018.8 hPa Calm   13.7 km/h 77 % 0.0 mm
16:12 12.1 °C 9.0 °C 1018.8 hPa WNW 6.1 km/h 15.8 km/h 78 % 0.0 mm
16:17 12.0 °C 9.0 °C 1018.8 hPa NNW 8.7 km/h 15.8 km/h 79 % 0.0 mm
16:22 11.8 °C 8.0 °C 1018.8 hPa North 7.6 km/h 13.7 km/h 79 % 0.0 mm
16:27 12.0 °C 9.0 °C 1018.8 hPa WNW 6.4 km/h 13.7 km/h 80 % 0.0 mm
16:32 12.2 °C 9.0 °C 1018.8 hPa NNW 4.0 km/h 9.3 km/h 80 % 0.0 mm
16:37 12.2 °C 9.0 °C 1018.8 hPa WNW 1.4 km/h 9.3 km/h 80 % 0.0 mm
16:42 12.0 °C 9.0 °C 1018.8 hPa WNW 2.6 km/h 9.0 km/h 79 % 0.0 mm
16:47 11.9 °C 9.0 °C 1018.8 hPa North 5.8 km/h 11.6 km/h 79 % 0.0 mm
16:52 11.8 °C 8.0 °C 1018.8 hPa NNW 4.0 km/h 13.7 km/h 79 % 0.0 mm
16:54 11.7 °C 8.0 °C 1018.8 hPa NNW 6.4 km/h 13.7 km/h 79 % 0.0 mm
16:59 11.7 °C 8.0 °C 1018.8 hPa WNW 5.8 km/h 13.7 km/h 79 % 0.0 mm
17:04 11.6 °C 8.0 °C 1018.8 hPa WNW 3.2 km/h 13.0 km/h 79 % 0.0 mm
17:09 11.6 °C 8.0 °C 1018.8 hPa NW 9.3 km/h 13.7 km/h 78 % 0.0 mm
17:14 11.7 °C 8.0 °C 1018.8 hPa NE 3.5 km/h 13.7 km/h 77 % 0.0 mm
17:19 11.7 °C 8.0 °C 1018.8 hPa WSW 14.8 km/h 14.8 km/h 78 % 0.0 mm
17:24 11.7 °C 8.0 °C 1018.8 hPa NNW 6.9 km/h 14.8 km/h 76 % 0.0 mm
17:29 11.6 °C 8.0 °C 1018.8 hPa NNW 5.5 km/h 14.0 km/h 76 % 0.0 mm
17:34 11.6 °C 8.0 °C 1018.8 hPa NNW 5.8 km/h 13.0 km/h 76 % 0.0 mm
17:39 11.6 °C 8.0 °C 1019.9 hPa NNW 9.7 km/h 10.5 km/h 76 % 0.0 mm
17:44 11.6 °C 8.0 °C 1019.9 hPa NE 6.1 km/h 10.1 km/h 75 % 0.0 mm
17:49 11.6 °C 8.0 °C 1019.9 hPa WNW 7.9 km/h 16.9 km/h 75 % 0.0 mm
17:54 11.5 °C 8.0 °C 1019.9 hPa NNW 6.9 km/h 16.9 km/h 75 % 0.0 mm
17:59 11.5 °C 8.0 °C 1019.9 hPa North 6.1 km/h 13.0 km/h 75 % 0.0 mm
18:04 11.4 °C 7.0 °C 1019.9 hPa North 5.8 km/h 12.6 km/h 76 % 0.0 mm
18:09 11.5 °C 8.0 °C 1018.8 hPa NNW 7.9 km/h 11.9 km/h 76 % 0.0 mm
18:14 11.6 °C 8.0 °C 1018.8 hPa NW 13.7 km/h 14.0 km/h 77 % 0.0 mm
18:19 11.7 °C 8.0 °C 1018.8 hPa NNW 4.7 km/h 14.0 km/h 77 % 0.0 mm
18:24 11.7 °C 8.0 °C 1018.8 hPa NNE 4.7 km/h 11.9 km/h 78 % 0.0 mm
18:29 11.7 °C 8.0 °C 1018.8 hPa North 4.7 km/h 13.0 km/h 78 % 0.0 mm
18:34 11.6 °C 8.0 °C 1018.8 hPa NW 2.1 km/h 13.0 km/h 78 % 0.0 mm
18:39 11.6 °C 8.0 °C 1018.8 hPa NNW 5.5 km/h 12.6 km/h 78 % 0.0 mm
18:44 11.5 °C 8.0 °C 1018.8 hPa WNW 4.7 km/h 12.6 km/h 78 % 0.0 mm
18:49 11.4 °C 8.0 °C 1018.8 hPa North 5.5 km/h 11.9 km/h 77 % 0.0 mm
18:54 11.4 °C 8.0 °C 1018.8 hPa North 4.7 km/h 11.9 km/h 77 % 0.0 mm
19:00 11.4 °C 7.0 °C 1018.8 hPa NNW 6.1 km/h 13.0 km/h 76 % 0.0 mm
19:05 11.4 °C 7.0 °C 1018.8 hPa NNE 9.0 km/h 13.7 km/h 75 % 0.0 mm
19:10 11.5 °C 8.0 °C 1018.8 hPa NW 4.0 km/h 13.7 km/h 75 % 0.0 mm
19:15 11.5 °C 8.0 °C 1018.8 hPa North 4.0 km/h 12.6 km/h 75 % 0.0 mm
19:20 11.5 °C 8.0 °C 1018.8 hPa NNW 9.7 km/h 16.3 km/h 75 % 0.0 mm
19:25 11.4 °C 7.0 °C 1018.8 hPa NNW 9.7 km/h 16.3 km/h 75 % 0.0 mm
19:30 11.3 °C 7.0 °C 1018.8 hPa North 9.7 km/h 14.0 km/h 75 % 0.0 mm
19:35 11.3 °C 7.0 °C 1018.8 hPa North 5.8 km/h 14.0 km/h 76 % 0.0 mm
19:40 11.2 °C 7.0 °C 1018.8 hPa North 5.8 km/h 13.7 km/h 76 % 0.0 mm
19:45 11.1 °C 7.0 °C 1018.8 hPa NW 5.0 km/h 17.7 km/h 76 % 0.0 mm
19:50 11.0 °C 7.0 °C 1018.8 hPa NNW 6.4 km/h 17.7 km/h 76 % 0.0 mm
19:55 10.9 °C 7.0 °C 1018.8 hPa NNE 8.7 km/h 15.4 km/h 77 % 0.0 mm
20:00 10.8 °C 7.0 °C 1018.8 hPa NNW 11.1 km/h 15.4 km/h 77 % 0.0 mm
20:05 10.8 °C 7.0 °C 1018.8 hPa North 10.1 km/h 14.8 km/h 78 % 0.0 mm
20:10 10.8 °C 7.0 °C 1018.8 hPa North 7.9 km/h 15.8 km/h 77 % 0.0 mm
20:15 10.7 °C 7.0 °C 1018.8 hPa NNW 10.5 km/h 16.6 km/h 78 % 0.0 mm
20:20 10.7 °C 7.0 °C 1018.8 hPa North 4.7 km/h 16.6 km/h 78 % 0.0 mm
20:25 10.7 °C 7.0 °C 1018.8 hPa West 7.9 km/h 14.0 km/h 78 % 0.0 mm
20:30 10.5 °C 7.0 °C 1018.8 hPa North 8.7 km/h 14.0 km/h 79 % 0.0 mm
20:35 10.5 °C 8.0 °C 1018.8 hPa NNW 6.9 km/h 14.0 km/h 80 % 0.0 mm
20:40 10.4 °C 7.0 °C 1018.8 hPa North 5.5 km/h 13.0 km/h 80 % 0.0 mm
20:45 10.4 °C 7.0 °C 1018.8 hPa NNW 5.0 km/h 13.0 km/h 80 % 0.0 mm
20:50 10.3 °C 7.0 °C 1018.8 hPa NNW 12.2 km/h 12.2 km/h 80 % 0.0 mm
20:55 10.3 °C 7.0 °C 1018.8 hPa NNE 5.8 km/h 12.2 km/h 81 % 0.0 mm
21:01 10.2 °C 7.0 °C 1018.8 hPa North 10.5 km/h 14.0 km/h 81 % 0.0 mm
21:06 10.2 °C 7.0 °C 1018.8 hPa NNW 7.9 km/h 14.0 km/h 81 % 0.0 mm
21:11 10.2 °C 8.0 °C 1018.8 hPa NW 10.5 km/h 13.0 km/h 82 % 0.0 mm
21:16 10.1 °C 7.0 °C 1018.8 hPa North 13.0 km/h 14.0 km/h 82 % 0.0 mm
21:21 10.1 °C 7.0 °C 1019.9 hPa NNW 8.7 km/h 14.0 km/h 82 % 0.0 mm
21:26 10.1 °C 7.0 °C 1019.9 hPa WNW 5.5 km/h 13.0 km/h 82 % 0.0 mm
21:31 10.1 °C 7.0 °C 1019.9 hPa NNW 8.7 km/h 13.0 km/h 82 % 0.0 mm
21:36 10.1 °C 7.0 °C 1019.9 hPa North 4.7 km/h 11.6 km/h 82 % 0.0 mm
21:41 10.0 °C 7.0 °C 1019.9 hPa North 4.7 km/h 9.7 km/h 82 % 0.0 mm
21:46 10.0 °C 7.0 °C 1019.9 hPa NNW 4.0 km/h 10.5 km/h 82 % 0.0 mm
21:51 10.0 °C 7.0 °C 1020.9 hPa NNW 6.9 km/h 10.5 km/h 82 % 0.0 mm
21:56 10.0 °C 7.0 °C 1020.9 hPa WNW 7.6 km/h 10.1 km/h 83 % 0.0 mm
22:01 9.9 °C 7.0 °C 1020.9 hPa North 5.8 km/h 11.6 km/h 83 % 0.0 mm
22:06 9.9 °C 8.0 °C 1020.9 hPa North 4.7 km/h 11.6 km/h 84 % 0.0 mm
22:11 9.9 °C 8.0 °C 1020.9 hPa North 7.6 km/h 12.2 km/h 84 % 0.0 mm
22:16 9.9 °C 8.0 °C 1020.9 hPa NW 1.8 km/h 12.2 km/h 84 % 0.0 mm
22:21 9.9 °C 8.0 °C 1020.9 hPa North 10.1 km/h 14.0 km/h 84 % 0.0 mm
22:26 9.9 °C 8.0 °C 1020.9 hPa NNW 6.1 km/h 14.0 km/h 84 % 0.0 mm
22:31 9.9 °C 8.0 °C 1020.9 hPa North 8.7 km/h 13.7 km/h 84 % 0.0 mm
22:36 9.8 °C 7.0 °C 1020.9 hPa NW 10.5 km/h 11.9 km/h 84 % 0.0 mm
22:41 9.8 °C 7.0 °C 1020.9 hPa NNE 9.7 km/h 13.0 km/h 84 % 0.0 mm
22:47 9.8 °C 7.0 °C 1020.9 hPa North 9.0 km/h 13.0 km/h 84 % 0.0 mm
22:49 9.8 °C 7.0 °C 1020.9 hPa NNE 4.7 km/h 13.0 km/h 84 % 0.0 mm
22:54 9.8 °C 7.0 °C 1020.9 hPa NNW 10.5 km/h 10.5 km/h 84 % 0.0 mm
22:59 9.9 °C 8.0 °C 1020.9 hPa NW 7.6 km/h 10.5 km/h 84 % 0.0 mm
23:04 9.9 °C 8.0 °C 1020.9 hPa WNW 6.4 km/h 9.7 km/h 84 % 0.0 mm
23:09 9.9 °C 8.0 °C 1020.9 hPa NW 4.7 km/h 10.5 km/h 84 % 0.0 mm
23:14 9.9 °C 8.0 °C 1020.9 hPa NNW 6.9 km/h 10.5 km/h 84 % 0.0 mm
23:19 9.9 °C 7.0 °C 1020.9 hPa NE 11.9 km/h 14.3 km/h 83 % 0.0 mm
23:24 9.9 °C 7.0 °C 1020.9 hPa NW 6.4 km/h 14.3 km/h 83 % 0.0 mm
23:29 10.0 °C 7.0 °C 1020.9 hPa North 2.6 km/h 12.6 km/h 82 % 0.0 mm
23:34 10.0 °C 7.0 °C 1020.9 hPa North 6.1 km/h 11.6 km/h 82 % 0.0 mm
23:39 10.0 °C 7.0 °C 1020.9 hPa WNW 6.4 km/h 12.6 km/h 82 % 0.0 mm
23:44 10.0 °C 7.0 °C 1020.9 hPa North 5.0 km/h 12.6 km/h 81 % 0.0 mm
23:49 10.0 °C 7.0 °C 1020.9 hPa North 9.3 km/h 12.2 km/h 81 % 0.0 mm
23:54 10.0 °C 7.0 °C 1020.9 hPa NW 9.3 km/h 12.2 km/h 81 % 0.0 mm
Le Gheer Warneton
Courtoisie de Weather Underground - 2.25 mb

Mise a jour : 18/12/2017 23:13:12
Généré par Cumulus 1.9.4 (1099)